Time,TemperatureF,DewpointF,PressureIn,WindDirection,WindDirectionDegrees,WindSpeedMPH,WindSpeedGustMPH,Humidity,HourlyPrecipIn,Conditions,Clouds,dailyrainin,SoftwareType,DateUTC
2013-06-14 00:01:00,51.4,48.6,0.00,NNE,12,0.0,0.0,90,0.00,,---,0.00,VWS V14.01,2013-06-14 07:01:00,
2013-06-14 00:06:00,51.4,48.6,0.00,NNE,12,0.0,0.0,90,0.00,,---,0.00,VWS V14.01,2013-06-14 07:06:00,
2013-06-14 00:11:00,51.6,48.8,0.00,NNE,12,0.0,0.0,90,0.00,,---,0.00,VWS V14.01,2013-06-14 07:11:00,
2013-06-14 00:16:00,51.6,48.8,0.00,NNE,12,0.0,0.0,90,0.00,,---,0.00,VWS V14.01,2013-06-14 07:16:00,
2013-06-14 00:21:00,51.6,48.8,0.00,NNE,12,0.0,0.0,90,0.00,,---,0.00,VWS V14.01,2013-06-14 07:21:00,
2013-06-14 00:26:00,51.6,48.8,0.00,NNE,12,0.0,0.0,90,0.00,,---,0.00,VWS V14.01,2013-06-14 07:26:00,
2013-06-14 00:31:00,51.6,48.8,0.00,NNE,12,0.0,0.0,90,0.00,,---,0.00,VWS V14.01,2013-06-14 07:31:00,
2013-06-14 00:36:00,51.6,48.8,0.00,NNE,12,0.0,0.0,90,0.00,,---,0.00,VWS V14.01,2013-06-14 07:36:00,
2013-06-14 00:41:00,51.4,48.6,0.00,NNE,12,0.0,0.0,90,0.00,,---,0.00,VWS V14.01,2013-06-14 07:41:00,
2013-06-14 00:46:00,51.4,48.6,0.00,NNE,12,0.0,0.0,90,0.00,,---,0.00,VWS V14.01,2013-06-14 07:46:00,
2013-06-14 00:51:00,51.4,48.6,0.00,NNE,12,0.0,0.0,90,0.00,,---,0.00,VWS V14.01,2013-06-14 07:51:00,
2013-06-14 00:56:00,51.4,48.6,0.00,NNE,12,0.0,0.0,90,0.00,,---,0.00,VWS V14.01,2013-06-14 07:56:00,
2013-06-14 01:01:00,51.4,48.6,0.00,NNE,12,0.0,0.0,90,0.00,,---,0.00,VWS V14.01,2013-06-14 08:01:00,
2013-06-14 01:06:00,51.4,48.6,0.00,NNE,12,0.0,0.0,90,0.00,,---,0.00,VWS V14.01,2013-06-14 08:06:00,
2013-06-14 01:11:00,51.4,48.6,0.00,NNE,12,0.0,0.0,90,0.00,,---,0.00,VWS V14.01,2013-06-14 08:11:00,
2013-06-14 01:16:00,51.1,48.2,0.00,NNE,12,0.0,0.0,90,0.00,,---,0.00,VWS V14.01,2013-06-14 08:16:00,
2013-06-14 01:21:00,51.1,48.2,0.00,NNE,12,0.0,0.0,90,0.00,,---,0.00,VWS V14.01,2013-06-14 08:21:00,
2013-06-14 01:26:00,50.7,48.2,0.00,NNE,12,0.0,0.0,91,0.00,,---,0.00,VWS V14.01,2013-06-14 08:26:00,
2013-06-14 01:31:00,50.4,47.8,0.00,NNE,12,0.0,0.0,91,0.00,,---,0.00,VWS V14.01,2013-06-14 08:31:00,
2013-06-14 01:36:00,50.4,47.8,0.00,NNE,12,0.0,0.0,91,0.00,,---,0.00,VWS V14.01,2013-06-14 08:36:00,
2013-06-14 01:41:00,50.4,47.8,0.00,NNE,12,0.0,0.0,91,0.00,,---,0.00,VWS V14.01,2013-06-14 08:41:00,
2013-06-14 01:46:00,50.2,47.7,0.00,NNE,12,0.0,0.0,91,0.00,,---,0.00,VWS V14.01,2013-06-14 08:46:00,
2013-06-14 01:51:00,50.2,47.7,0.00,NNE,12,0.0,0.0,91,0.00,,---,0.00,VWS V14.01,2013-06-14 08:51:00,
2013-06-14 01:56:00,50.4,47.8,0.00,NNE,12,0.0,0.0,91,0.00,,---,0.00,VWS V14.01,2013-06-14 08:56:00,
2013-06-14 02:01:00,50.4,47.8,0.00,NNE,12,0.0,0.0,91,0.00,,---,0.00,VWS V14.01,2013-06-14 09:01:00,
2013-06-14 02:06:00,50.5,48.0,0.00,NNE,12,0.0,0.0,91,0.00,,---,0.00,VWS V14.01,2013-06-14 09:06:00,
2013-06-14 02:11:00,50.5,48.0,0.00,NNE,12,0.0,0.0,91,0.00,,---,0.00,VWS V14.01,2013-06-14 09:11:00,
2013-06-14 02:16:00,50.5,47.7,0.00,NNE,12,0.0,0.0,90,0.00,,---,0.00,VWS V14.01,2013-06-14 09:16:00,
2013-06-14 02:21:00,50.4,47.5,0.00,NNE,12,0.0,0.0,90,0.00,,---,0.00,VWS V14.01,2013-06-14 09:21:00,
2013-06-14 02:26:00,50.5,47.7,0.00,SSE,167,2.2,4.0,90,0.00,,---,0.00,VWS V14.01,2013-06-14 09:26:00,
2013-06-14 02:31:00,50.4,47.5,0.00,South,178,0.0,4.0,90,0.00,,---,0.00,VWS V14.01,2013-06-14 09:31:00,
2013-06-14 02:36:00,50.2,47.4,0.00,South,191,0.0,3.6,90,0.00,,---,0.00,VWS V14.01,2013-06-14 09:36:00,
2013-06-14 02:41:00,50.0,47.2,0.00,SSW,199,0.0,0.0,90,0.00,,---,0.00,VWS V14.01,2013-06-14 09:41:00,
2013-06-14 02:46:00,50.0,47.2,0.00,SSW,197,0.0,3.6,90,0.00,,---,0.00,VWS V14.01,2013-06-14 09:46:00,
2013-06-14 02:51:00,50.0,47.2,0.00,SSW,197,0.0,0.0,90,0.00,,---,0.00,VWS V14.01,2013-06-14 09:51:00,
2013-06-14 02:56:00,50.0,47.2,0.00,SSW,197,0.0,0.0,90,0.00,,---,0.00,VWS V14.01,2013-06-14 09:56:00,
2013-06-14 03:01:00,50.0,47.2,0.00,SSE,165,3.1,3.1,90,0.00,,---,0.00,VWS V14.01,2013-06-14 10:01:00,
2013-06-14 03:06:00,50.0,47.2,0.00,SSE,165,0.0,0.0,90,0.00,,---,0.00,VWS V14.01,2013-06-14 10:06:00,
2013-06-14 03:11:00,50.0,47.2,0.00,SSE,165,0.0,0.0,90,0.00,,---,0.00,VWS V14.01,2013-06-14 10:11:00,
2013-06-14 03:16:00,50.0,47.2,0.00,SSE,165,0.0,0.0,90,0.00,,---,0.00,VWS V14.01,2013-06-14 10:16:00,
2013-06-14 03:21:00,50.0,47.2,0.00,SSE,165,0.0,0.0,90,0.00,,---,0.00,VWS V14.01,2013-06-14 10:21:00,
2013-06-14 03:26:00,50.0,47.2,0.00,SSE,165,0.0,0.0,90,0.00,,---,0.00,VWS V14.01,2013-06-14 10:26:00,
2013-06-14 03:31:00,49.8,47.0,0.00,SSE,165,0.0,0.0,90,0.00,,---,0.00,VWS V14.01,2013-06-14 10:31:00,
2013-06-14 03:36:00,49.8,47.0,0.00,SSE,165,0.0,0.0,90,0.00,,---,0.00,VWS V14.01,2013-06-14 10:36:00,
2013-06-14 03:41:00,49.8,47.0,0.00,SSE,165,0.0,0.0,90,0.00,,---,0.00,VWS V14.01,2013-06-14 10:41:00,
2013-06-14 03:46:00,50.0,47.2,0.00,SSE,165,0.0,0.0,90,0.00,,---,0.00,VWS V14.01,2013-06-14 10:46:00,
2013-06-14 03:51:00,50.0,47.2,0.00,SSE,165,0.0,0.0,90,0.00,,---,0.00,VWS V14.01,2013-06-14 10:51:00,
2013-06-14 03:56:00,50.0,47.2,0.00,SSE,165,0.0,0.0,90,0.00,,---,0.00,VWS V14.01,2013-06-14 10:56:00,
2013-06-14 04:01:00,50.0,47.2,0.00,SSE,165,0.0,0.0,90,0.00,,---,0.00,VWS V14.01,2013-06-14 11:01:00,
2013-06-14 04:06:00,50.0,47.2,0.00,SSE,165,0.0,0.0,90,0.00,,---,0.00,VWS V14.01,2013-06-14 11:06:00,
2013-06-14 04:11:00,49.8,47.0,0.00,SSE,165,0.0,0.0,90,0.00,,---,0.00,VWS V14.01,2013-06-14 11:11:00,
2013-06-14 04:16:00,49.8,47.0,0.00,SSE,165,0.0,0.0,90,0.00,,---,0.00,VWS V14.01,2013-06-14 11:16:00,
2013-06-14 04:21:00,49.8,47.0,0.00,SSE,165,0.0,0.0,90,0.00,,---,0.00,VWS V14.01,2013-06-14 11:21:00,
2013-06-14 04:26:00,49.8,47.0,0.00,SSE,165,0.0,0.0,90,0.00,,---,0.00,VWS V14.01,2013-06-14 11:26:00,
2013-06-14 04:31:00,49.6,46.8,0.00,SSE,165,0.0,0.0,90,0.00,,---,0.00,VWS V14.01,2013-06-14 11:31:00,
2013-06-14 04:36:00,49.6,46.8,0.00,SSE,165,0.0,0.0,90,0.00,,---,0.00,VWS V14.01,2013-06-14 11:36:00,
2013-06-14 04:41:00,49.6,46.8,0.00,SSE,165,0.0,0.0,90,0.00,,---,0.00,VWS V14.01,2013-06-14 11:41:00,
2013-06-14 04:46:00,49.6,46.8,0.00,SSE,165,0.0,0.0,90,0.00,,---,0.00,VWS V14.01,2013-06-14 11:46:00,
2013-06-14 04:51:00,49.6,46.8,0.00,SSE,165,0.0,0.0,90,0.00,,---,0.00,VWS V14.01,2013-06-14 11:51:00,
2013-06-14 04:56:00,49.6,46.8,0.00,SSE,165,0.0,0.0,90,0.00,,---,0.00,VWS V14.01,2013-06-14 11:56:00,
2013-06-14 05:01:00,49.6,46.8,0.00,SSE,165,0.0,0.0,90,0.00,,---,0.00,VWS V14.01,2013-06-14 12:01:00,
2013-06-14 05:06:00,49.8,47.3,0.00,SSE,165,0.0,0.0,91,0.00,,---,0.00,VWS V14.01,2013-06-14 12:06:00,
2013-06-14 05:11:00,49.6,47.1,0.00,SSE,165,0.0,0.0,91,0.00,,---,0.00,VWS V14.01,2013-06-14 12:11:00,
2013-06-14 05:16:00,49.5,47.0,0.00,SSE,165,0.0,0.0,91,0.00,,---,0.00,VWS V14.01,2013-06-14 12:16:00,
2013-06-14 05:21:00,49.6,47.1,0.00,SSE,165,0.0,0.0,91,0.00,,---,0.00,VWS V14.01,2013-06-14 12:21:00,
2013-06-14 05:26:00,49.6,47.1,0.00,SSE,165,0.0,0.0,91,0.00,,---,0.00,VWS V14.01,2013-06-14 12:26:00,
2013-06-14 05:31:00,49.6,47.1,0.00,SSE,165,0.0,0.0,91,0.00,,---,0.00,VWS V14.01,2013-06-14 12:31:00,
2013-06-14 05:36:00,49.6,47.1,0.00,SSE,165,0.0,0.0,91,0.00,,---,0.00,VWS V14.01,2013-06-14 12:36:00,
2013-06-14 05:41:00,49.6,47.1,0.00,SSE,165,0.0,0.0,91,0.00,,---,0.00,VWS V14.01,2013-06-14 12:41:00,
2013-06-14 05:46:00,49.6,47.1,0.00,SSE,165,0.0,0.0,91,0.00,,---,0.00,VWS V14.01,2013-06-14 12:46:00,
2013-06-14 05:51:00,49.5,47.0,0.00,SSE,165,0.0,0.0,91,0.00,,---,0.00,VWS V14.01,2013-06-14 12:51:00,
2013-06-14 05:56:00,49.6,47.1,0.00,SSE,165,0.0,0.0,91,0.00,,---,0.00,VWS V14.01,2013-06-14 12:56:00,
2013-06-14 06:01:00,49.8,47.3,0.00,SSE,165,0.0,0.0,91,0.00,,---,0.00,VWS V14.01,2013-06-14 13:01:00,
2013-06-14 06:06:00,49.8,47.3,0.00,SSE,165,0.0,0.0,91,0.00,,---,0.00,VWS V14.01,2013-06-14 13:06:00,
2013-06-14 06:11:00,50.0,47.5,0.00,SSE,165,0.0,0.0,91,0.00,,---,0.00,VWS V14.01,2013-06-14 13:11:00,
2013-06-14 06:16:00,50.2,47.7,0.00,SSE,165,0.0,0.0,91,0.00,,---,0.00,VWS V14.01,2013-06-14 13:16:00,
2013-06-14 06:21:00,50.2,47.7,0.00,SSE,165,0.0,0.0,91,0.00,,---,0.00,VWS V14.01,2013-06-14 13:21:00,
2013-06-14 06:26:00,50.2,47.7,0.00,SSE,165,0.0,0.0,91,0.00,,---,0.00,VWS V14.01,2013-06-14 13:26:00,
2013-06-14 06:31:00,50.4,47.8,0.00,SSE,165,0.0,0.0,91,0.00,,---,0.00,VWS V14.01,2013-06-14 13:31:00,
2013-06-14 06:36:00,50.5,48.0,0.00,SSE,165,0.0,0.0,91,0.00,,---,0.00,VWS V14.01,2013-06-14 13:36:00,
2013-06-14 06:41:00,50.7,48.2,0.00,SSE,165,0.0,0.0,91,0.00,,---,0.00,VWS V14.01,2013-06-14 13:41:00,
2013-06-14 06:46:00,50.7,48.2,0.00,SSE,165,0.0,0.0,91,0.00,,---,0.00,VWS V14.01,2013-06-14 13:46:00,
2013-06-14 06:51:00,51.1,48.5,0.00,SSE,165,0.0,0.0,91,0.00,,---,0.00,VWS V14.01,2013-06-14 13:51:00,
2013-06-14 06:56:00,51.1,48.5,0.00,SSE,165,0.0,0.0,91,0.00,,---,0.00,VWS V14.01,2013-06-14 13:56:00,
2013-06-14 07:01:00,51.1,48.2,0.00,SSE,165,0.0,0.0,90,0.00,,---,0.00,VWS V14.01,2013-06-14 14:01:00,
2013-06-14 07:06:00,51.3,48.4,0.00,SSE,165,0.0,0.0,90,0.00,,---,0.00,VWS V14.01,2013-06-14 14:06:00,
2013-06-14 07:11:00,51.3,48.4,0.00,SSE,165,2.7,2.7,90,0.00,,---,0.00,VWS V14.01,2013-06-14 14:11:00,
2013-06-14 07:16:00,51.3,48.1,0.00,SSE,165,0.0,0.0,89,0.00,,---,0.00,VWS V14.01,2013-06-14 14:16:00,
2013-06-14 07:21:00,51.4,48.3,0.00,SSE,165,0.0,0.0,89,0.00,,---,0.00,VWS V14.01,2013-06-14 14:21:00,
2013-06-14 07:26:00,51.6,48.5,0.00,SSE,165,0.0,0.0,89,0.00,,---,0.00,VWS V14.01,2013-06-14 14:26:00,
2013-06-14 07:31:00,51.6,48.5,0.00,SSE,165,0.0,0.0,89,0.00,,---,0.00,VWS V14.01,2013-06-14 14:31:00,
2013-06-14 07:36:00,51.6,48.5,0.00,SSE,165,0.0,0.0,89,0.00,,---,0.00,VWS V14.01,2013-06-14 14:36:00,
2013-06-14 07:41:00,51.6,48.2,0.00,SSE,165,0.0,0.0,88,0.00,,---,0.00,VWS V14.01,2013-06-14 14:41:00,
2013-06-14 07:46:00,51.6,47.9,0.00,SSE,165,0.0,0.0,87,0.00,,---,0.00,VWS V14.01,2013-06-14 14:46:00,
2013-06-14 07:51:00,51.6,47.9,0.00,SSE,165,0.0,0.0,87,0.00,,---,0.00,VWS V14.01,2013-06-14 14:51:00,
2013-06-14 07:56:00,51.6,47.9,0.00,East,93,3.1,4.0,87,0.00,,---,0.00,VWS V14.01,2013-06-14 14:56:00,
2013-06-14 08:01:00,51.4,47.4,0.00,SSE,150,0.0,3.6,86,0.00,,---,0.00,VWS V14.01,2013-06-14 15:01:00,
2013-06-14 08:06:00,51.4,47.1,0.00,East,79,0.0,5.4,85,0.00,,---,0.00,VWS V14.01,2013-06-14 15:06:00,
2013-06-14 08:11:00,51.6,47.3,0.00,East,79,0.0,0.0,85,0.00,,---,0.00,VWS V14.01,2013-06-14 15:11:00,
2013-06-14 08:16:00,51.8,47.4,0.00,East,79,0.0,0.0,85,0.00,,---,0.00,VWS V14.01,2013-06-14 15:16:00,
2013-06-14 08:21:00,52.3,48.0,0.00,East,81,0.0,0.0,85,0.00,,---,0.00,VWS V14.01,2013-06-14 15:21:00,
2013-06-14 08:26:00,52.5,48.2,0.00,East,81,0.0,0.0,85,0.00,,---,0.00,VWS V14.01,2013-06-14 15:26:00,
2013-06-14 08:31:00,52.5,47.8,0.00,ESE,113,2.2,3.1,84,0.00,,---,0.00,VWS V14.01,2013-06-14 15:31:00,
2013-06-14 08:36:00,52.7,48.0,0.00,SSE,149,0.0,3.1,84,0.00,,---,0.00,VWS V14.01,2013-06-14 15:36:00,
2013-06-14 08:41:00,52.7,47.7,0.00,SSE,149,0.0,0.0,83,0.00,,---,0.00,VWS V14.01,2013-06-14 15:41:00,
2013-06-14 08:46:00,52.9,47.9,0.00,ESE,113,0.0,5.4,83,0.00,,---,0.00,VWS V14.01,2013-06-14 15:46:00,
2013-06-14 08:51:00,53.2,48.5,0.00,SE,142,2.2,5.4,84,0.00,,---,0.00,VWS V14.01,2013-06-14 15:51:00,
2013-06-14 08:55:00,53.2,47.9,0.00,South,177,0.0,4.0,82,0.00,,---,0.00,VWS V14.01,2013-06-14 15:55:00,
2013-06-14 09:00:00,53.8,48.1,0.00,South,185,3.6,3.6,81,0.00,,---,0.00,VWS V14.01,2013-06-14 16:00:00,
2013-06-14 09:06:00,54.1,47.8,0.00,SSE,153,0.0,2.2,79,0.00,,---,0.00,VWS V14.01,2013-06-14 16:06:00,
2013-06-14 09:10:00,54.3,47.6,0.00,SSE,161,0.0,0.0,78,0.00,,---,0.00,VWS V14.01,2013-06-14 16:10:00,
2013-06-14 09:15:00,54.7,48.0,0.00,SE,125,0.0,4.0,78,0.00,,---,0.00,VWS V14.01,2013-06-14 16:15:00,
2013-06-14 09:20:00,55.4,48.3,0.00,East,92,2.2,4.0,77,0.00,,---,0.00,VWS V14.01,2013-06-14 16:20:00,
2013-06-14 09:25:00,55.8,47.6,0.00,SE,135,0.0,0.0,74,0.00,,---,0.00,VWS V14.01,2013-06-14 16:25:00,
2013-06-14 09:31:00,55.9,47.1,0.00,SE,136,0.0,2.2,72,0.00,,---,0.00,VWS V14.01,2013-06-14 16:31:00,
2013-06-14 09:36:00,56.3,47.8,0.00,South,182,0.0,0.0,73,0.00,,---,0.00,VWS V14.01,2013-06-14 16:36:00,
2013-06-14 09:41:00,56.8,48.3,0.00,SE,133,2.2,4.5,73,0.00,,---,0.00,VWS V14.01,2013-06-14 16:41:00,
2013-06-14 09:45:00,57.0,47.3,0.00,SSE,150,4.9,5.4,70,0.00,,---,0.00,VWS V14.01,2013-06-14 16:45:00,
2013-06-14 09:50:00,57.0,45.8,0.00,SW,215,4.0,5.8,66,0.00,,---,0.00,VWS V14.01,2013-06-14 16:50:00,
2013-06-14 09:55:00,57.2,46.4,0.00,SSE,156,2.7,4.0,67,0.00,,---,0.00,VWS V14.01,2013-06-14 16:55:00,
2013-06-14 10:01:00,57.4,46.1,0.00,SW,224,0.0,3.1,66,0.00,,---,0.00,VWS V14.01,2013-06-14 17:01:00,
2013-06-14 10:05:00,57.6,45.9,0.00,SSE,165,3.1,3.1,65,0.00,,---,0.00,VWS V14.01,2013-06-14 17:05:00,
2013-06-14 10:11:00,57.6,45.9,0.00,SSE,153,3.1,3.1,65,0.00,,---,0.00,VWS V14.01,2013-06-14 17:11:00,
2013-06-14 10:15:00,58.1,46.4,0.00,SSE,153,3.1,3.1,65,0.00,,---,0.00,VWS V14.01,2013-06-14 17:15:00,
2013-06-14 10:20:00,59.2,45.8,0.00,South,176,0.0,0.0,61,0.00,,---,0.00,VWS V14.01,2013-06-14 17:20:00,
2013-06-14 10:25:00,59.4,45.5,0.00,SSE,167,4.9,4.9,60,0.00,,---,0.00,VWS V14.01,2013-06-14 17:25:00,
2013-06-14 10:30:00,59.0,44.7,0.00,SSE,167,4.9,4.9,59,0.00,,---,0.00,VWS V14.01,2013-06-14 17:30:00,
2013-06-14 10:35:00,58.6,44.4,0.00,SSW,197,3.6,5.4,59,0.00,,---,0.00,VWS V14.01,2013-06-14 17:35:00,
2013-06-14 10:40:00,58.5,43.8,0.00,WSW,239,3.1,3.1,58,0.00,,---,0.00,VWS V14.01,2013-06-14 17:40:00,
2013-06-14 10:45:00,58.6,44.8,0.00,SSW,194,5.4,5.4,60,0.00,,---,0.00,VWS V14.01,2013-06-14 17:45:00,
2013-06-14 10:50:00,59.2,44.4,0.00,SSE,166,5.4,5.4,58,0.00,,---,0.00,VWS V14.01,2013-06-14 17:50:00,
2013-06-14 10:55:00,59.2,44.4,0.00,ESE,121,3.6,3.6,58,0.00,,---,0.00,VWS V14.01,2013-06-14 17:55:00,
2013-06-14 11:00:00,59.7,45.8,0.00,SSE,164,4.9,4.9,60,0.00,,---,0.00,VWS V14.01,2013-06-14 18:00:00,
2013-06-14 11:05:00,59.7,44.0,0.00,South,181,5.8,5.8,56,0.00,,---,0.00,VWS V14.01,2013-06-14 18:05:00,
2013-06-14 11:10:00,59.7,44.0,0.00,SSW,204,2.7,2.7,56,0.00,,---,0.00,VWS V14.01,2013-06-14 18:10:00,
2013-06-14 11:15:00,60.3,45.4,0.00,SSE,147,6.3,6.3,58,0.00,,---,0.00,VWS V14.01,2013-06-14 18:15:00,
2013-06-14 11:20:00,60.6,45.3,0.00,SSW,213,3.1,3.1,57,0.00,,---,0.00,VWS V14.01,2013-06-14 18:20:00,
2013-06-14 11:25:00,60.6,45.3,0.00,SE,145,8.1,8.1,57,0.00,,---,0.00,VWS V14.01,2013-06-14 18:25:00,
2013-06-14 11:30:00,61.3,46.0,0.00,SSE,162,3.1,3.1,57,0.00,,---,0.00,VWS V14.01,2013-06-14 18:30:00,
2013-06-14 11:35:00,61.3,46.0,0.00,SSE,162,3.1,3.1,57,0.00,,---,0.00,VWS V14.01,2013-06-14 18:35:00,
2013-06-14 11:40:00,64.0,46.1,0.00,South,173,4.0,4.0,52,0.00,,---,0.00,VWS V14.01,2013-06-14 18:40:00,
2013-06-14 11:45:00,64.0,46.1,0.00,East,100,3.1,3.1,52,0.00,,---,0.00,VWS V14.01,2013-06-14 18:45:00,
2013-06-14 11:50:00,63.7,45.8,0.00,SE,143,4.9,4.9,52,0.00,,---,0.00,VWS V14.01,2013-06-14 18:50:00,
2013-06-14 11:55:00,64.4,44.8,0.00,ESE,120,0.0,6.7,49,0.00,,---,0.00,VWS V14.01,2013-06-14 18:55:00,
2013-06-14 12:00:00,64.4,44.3,0.00,SSW,194,2.7,2.7,48,0.00,,---,0.00,VWS V14.01,2013-06-14 19:00:00,
2013-06-14 12:05:00,64.4,44.3,0.00,SW,215,3.6,3.6,48,0.00,,---,0.00,VWS V14.01,2013-06-14 19:05:00,
2013-06-14 12:10:00,64.9,45.3,0.00,SW,225,4.0,4.5,49,0.00,,---,0.00,VWS V14.01,2013-06-14 19:10:00,
2013-06-14 12:15:00,64.9,45.3,0.00,West,261,0.0,0.0,49,0.00,,---,0.00,VWS V14.01,2013-06-14 19:15:00,
2013-06-14 12:20:00,65.5,45.8,0.00,South,176,5.4,5.4,49,0.00,,---,0.00,VWS V14.01,2013-06-14 19:20:00,
2013-06-14 12:25:00,66.6,45.7,0.00,South,187,0.0,0.0,47,0.00,,---,0.00,VWS V14.01,2013-06-14 19:25:00,
2013-06-14 12:30:00,65.8,46.7,0.00,South,187,0.0,0.0,50,0.00,,---,0.00,VWS V14.01,2013-06-14 19:30:00,
2013-06-14 12:35:00,67.5,44.8,0.00,SSE,166,4.9,5.4,44,0.00,,---,0.00,VWS V14.01,2013-06-14 19:35:00,
2013-06-14 12:40:00,67.5,44.8,0.00,SSE,166,4.9,4.9,44,0.00,,---,0.00,VWS V14.01,2013-06-14 19:40:00,
2013-06-14 12:45:00,67.6,41.8,0.00,NNW,345,4.5,4.5,39,0.00,,---,0.00,VWS V14.01,2013-06-14 19:45:00,
2013-06-14 12:50:00,67.5,44.8,0.00,SSW,210,5.8,5.8,44,0.00,,---,0.00,VWS V14.01,2013-06-14 19:50:00,
2013-06-14 12:55:00,67.3,42.2,0.00,NNE,17,4.9,4.9,40,0.00,,---,0.00,VWS V14.01,2013-06-14 19:55:00,
2013-06-14 13:00:00,65.1,41.5,0.00,WNW,303,2.7,2.7,42,0.00,,---,0.00,VWS V14.01,2013-06-14 20:00:00,
2013-06-14 13:05:00,64.9,41.9,0.00,WNW,298,3.1,3.1,43,0.00,,---,0.00,VWS V14.01,2013-06-14 20:05:00,
2013-06-14 13:10:00,64.9,41.9,0.00,NW,322,3.6,4.0,43,0.00,,---,0.00,VWS V14.01,2013-06-14 20:10:00,
2013-06-14 13:15:00,64.2,41.9,0.00,WNW,291,5.4,5.4,44,0.00,,---,0.00,VWS V14.01,2013-06-14 20:15:00,
2013-06-14 13:20:00,65.7,44.9,0.00,South,183,3.6,3.6,47,0.00,,---,0.00,VWS V14.01,2013-06-14 20:20:00,
2013-06-14 13:25:00,66.9,43.7,0.00,West,276,0.0,3.1,43,0.00,,---,0.00,VWS V14.01,2013-06-14 20:25:00,
2013-06-14 13:30:00,66.9,43.1,0.00,NNW,345,2.2,2.2,42,0.00,,---,0.00,VWS V14.01,2013-06-14 20:30:00,
2013-06-14 13:35:00,65.5,40.5,0.00,North,1,2.2,2.2,40,0.00,,---,0.00,VWS V14.01,2013-06-14 20:35:00,
2013-06-14 13:40:00,66.2,41.2,0.00,North,349,2.7,2.7,40,0.00,,---,0.00,VWS V14.01,2013-06-14 20:40:00,
2013-06-14 13:45:00,66.2,41.2,0.00,NNW,348,0.0,0.0,40,0.00,,---,0.00,VWS V14.01,2013-06-14 20:45:00,
2013-06-14 13:50:00,65.3,41.6,0.00,NNW,348,0.0,0.0,42,0.00,,---,0.00,VWS V14.01,2013-06-14 20:50:00,
2013-06-14 13:55:00,65.1,42.7,0.00,WSW,246,5.4,5.4,44,0.00,,---,0.00,VWS V14.01,2013-06-14 20:55:00,
2013-06-14 14:00:00,66.2,43.7,0.00,WSW,246,5.4,5.4,44,0.00,,---,0.00,VWS V14.01,2013-06-14 21:00:00,
2013-06-14 14:05:00,67.1,43.9,0.00,NW,325,4.9,4.9,43,0.00,,---,0.00,VWS V14.01,2013-06-14 21:05:00,
2013-06-14 14:10:00,67.1,43.9,0.00,NW,311,3.6,3.6,43,0.00,,---,0.00,VWS V14.01,2013-06-14 21:10:00,
2013-06-14 14:15:00,66.9,43.7,0.00,WNW,298,4.0,4.0,43,0.00,,---,0.00,VWS V14.01,2013-06-14 21:15:00,
2013-06-14 14:20:00,67.1,43.9,0.00,NNW,330,4.9,4.9,43,0.00,,---,0.00,VWS V14.01,2013-06-14 21:20:00,
2013-06-14 14:25:00,66.9,42.5,0.00,WNW,298,0.0,0.0,41,0.00,,---,0.00,VWS V14.01,2013-06-14 21:25:00,
2013-06-14 14:30:00,66.9,42.5,0.00,West,279,0.0,0.0,41,0.00,,---,0.00,VWS V14.01,2013-06-14 21:30:00,
2013-06-14 14:35:00,66.6,41.5,0.00,NW,305,6.3,6.3,40,0.00,,---,0.00,VWS V14.01,2013-06-14 21:35:00,
2013-06-14 14:40:00,64.8,41.2,0.00,NW,324,4.9,4.9,42,0.00,,---,0.00,VWS V14.01,2013-06-14 21:40:00,
2013-06-14 14:45:00,64.4,41.4,0.00,NNW,331,3.1,3.1,43,0.00,,---,0.00,VWS V14.01,2013-06-14 21:45:00,
2013-06-14 14:50:00,66.0,42.9,0.00,WNW,297,5.8,5.8,43,0.00,,---,0.00,VWS V14.01,2013-06-14 21:50:00,
2013-06-14 14:55:00,66.7,44.2,0.00,NNW,332,3.1,3.1,44,0.00,,---,0.00,VWS V14.01,2013-06-14 21:55:00,
2013-06-14 15:00:00,67.1,42.6,0.00,NNW,338,3.1,3.1,41,0.00,,---,0.00,VWS V14.01,2013-06-14 22:00:00,
2013-06-14 15:05:00,66.0,41.0,0.00,NW,304,4.0,4.0,40,0.00,,---,0.00,VWS V14.01,2013-06-14 22:05:00,
2013-06-14 15:10:00,65.8,42.7,0.00,NNW,347,3.6,3.6,43,0.00,,---,0.00,VWS V14.01,2013-06-14 22:10:00,
2013-06-14 15:15:00,66.4,42.6,0.00,North,354,5.4,5.4,42,0.00,,---,0.00,VWS V14.01,2013-06-14 22:15:00,
2013-06-14 15:20:00,65.7,43.2,0.00,WNW,295,2.7,2.7,44,0.00,,---,0.00,VWS V14.01,2013-06-14 22:20:00,
2013-06-14 15:25:00,66.0,41.7,0.00,NNW,343,5.8,5.8,41,0.00,,---,0.00,VWS V14.01,2013-06-14 22:25:00,
2013-06-14 15:30:00,65.5,42.4,0.00,NW,324,4.5,11.0,43,0.00,,---,0.00,VWS V14.01,2013-06-14 22:30:00,
2013-06-14 15:35:00,65.1,42.7,0.00,WNW,297,4.9,4.9,44,0.00,,---,0.00,VWS V14.01,2013-06-14 22:35:00,
2013-06-14 15:40:00,65.5,43.0,0.00,NW,315,6.7,6.7,44,0.00,,---,0.00,VWS V14.01,2013-06-14 22:40:00,
2013-06-14 15:45:00,65.5,43.0,0.00,WNW,285,10.5,10.5,44,0.00,,---,0.00,VWS V14.01,2013-06-14 22:45:00,
2013-06-14 15:50:00,66.4,42.6,0.00,North,359,6.3,8.1,42,0.00,,---,0.00,VWS V14.01,2013-06-14 22:50:00,
2013-06-14 15:55:00,66.4,42.6,0.00,NNW,343,10.5,10.5,42,0.00,,---,0.00,VWS V14.01,2013-06-14 22:55:00,
2013-06-14 16:00:00,64.8,41.8,0.00,NNW,344,5.4,10.5,43,0.00,,---,0.00,VWS V14.01,2013-06-14 23:00:00,
2013-06-14 16:05:00,64.8,43.0,0.00,North,350,10.1,10.1,45,0.00,,---,0.00,VWS V14.01,2013-06-14 23:05:00,
2013-06-14 16:10:00,64.8,43.0,0.00,NNW,344,8.1,8.1,45,0.00,,---,0.00,VWS V14.01,2013-06-14 23:10:00,
2013-06-14 16:15:00,63.7,42.5,0.00,North,353,6.7,6.7,46,0.00,,---,0.00,VWS V14.01,2013-06-14 23:15:00,
2013-06-14 16:20:00,63.7,42.5,0.00,NNW,345,6.3,6.3,46,0.00,,---,0.00,VWS V14.01,2013-06-14 23:20:00,
2013-06-14 16:25:00,64.2,42.5,0.00,NNW,348,6.3,7.6,45,0.00,,---,0.00,VWS V14.01,2013-06-14 23:25:00,
2013-06-14 16:30:00,63.5,43.5,0.00,NNW,347,7.6,8.3,48,0.00,,---,0.00,VWS V14.01,2013-06-14 23:30:00,
2013-06-14 16:35:00,63.5,43.5,0.00,West,280,8.7,8.7,48,0.00,,---,0.00,VWS V14.01,2013-06-14 23:35:00,
2013-06-14 16:40:00,64.4,43.2,0.00,WNW,288,3.6,3.6,46,0.00,,---,0.00,VWS V14.01,2013-06-14 23:40:00,
2013-06-14 16:45:00,63.7,42.5,0.00,North,5,5.4,5.4,46,0.00,,---,0.00,VWS V14.01,2013-06-14 23:45:00,
2013-06-14 16:50:00,63.9,43.3,0.00,North,11,10.1,10.1,47,0.00,,---,0.00,VWS V14.01,2013-06-14 23:50:00,
2013-06-14 16:55:00,64.2,43.0,0.00,West,273,8.1,8.1,46,0.00,,---,0.00,VWS V14.01,2013-06-14 23:55:00,
2013-06-14 17:00:00,64.6,42.8,0.00,NNW,338,7.6,8.7,45,0.00,,---,0.00,VWS V14.01,2013-06-15 00:00:00,
2013-06-14 17:05:00,64.0,43.4,0.00,WNW,291,7.6,7.6,47,0.00,,---,0.00,VWS V14.01,2013-06-15 00:05:00,
2013-06-14 17:10:00,63.5,42.9,0.00,NNW,339,6.3,6.3,47,0.00,,---,0.00,VWS V14.01,2013-06-15 00:10:00,
2013-06-14 17:15:00,63.5,42.9,0.00,NW,315,8.1,8.1,47,0.00,,---,0.00,VWS V14.01,2013-06-15 00:15:00,
2013-06-14 17:20:00,63.5,42.9,0.00,NW,307,5.4,10.1,47,0.00,,---,0.00,VWS V14.01,2013-06-15 00:20:00,
2013-06-14 17:25:00,63.9,43.3,0.00,NW,307,6.3,6.3,47,0.00,,---,0.00,VWS V14.01,2013-06-15 00:25:00,
2013-06-14 17:30:00,63.9,43.3,0.00,NNW,343,3.1,3.1,47,0.00,,---,0.00,VWS V14.01,2013-06-15 00:30:00,
2013-06-14 17:35:00,64.8,43.5,0.00,North,352,5.8,5.8,46,0.00,,---,0.00,VWS V14.01,2013-06-15 00:35:00,
2013-06-14 17:40:00,64.8,43.5,0.00,NNW,335,7.2,7.2,46,0.00,,---,0.00,VWS V14.01,2013-06-15 00:40:00,
2013-06-14 17:45:00,64.6,44.5,0.00,West,280,4.0,4.0,48,0.00,,---,0.00,VWS V14.01,2013-06-15 00:45:00,
2013-06-14 17:50:00,63.9,42.7,0.00,NNW,343,3.6,8.7,46,0.00,,---,0.00,VWS V14.01,2013-06-15 00:50:00,
2013-06-14 17:55:00,63.9,43.3,0.00,NW,326,5.8,5.8,47,0.00,,---,0.00,VWS V14.01,2013-06-15 00:55:00,
2013-06-14 18:00:00,63.9,43.3,0.00,North,359,5.8,5.8,47,0.00,,---,0.00,VWS V14.01,2013-06-15 01:00:00,
2013-06-14 18:05:00,63.9,43.3,0.00,WNW,301,6.3,6.3,47,0.00,,---,0.00,VWS V14.01,2013-06-15 01:05:00,
2013-06-14 18:10:00,63.3,42.8,0.00,West,276,5.4,6.3,47,0.00,,---,0.00,VWS V14.01,2013-06-15 01:10:00,
2013-06-14 18:15:00,63.1,43.2,0.00,NW,323,5.4,5.4,48,0.00,,---,0.00,VWS V14.01,2013-06-15 01:15:00,
2013-06-14 18:20:00,63.7,44.2,0.00,NW,316,4.0,4.0,49,0.00,,---,0.00,VWS V14.01,2013-06-15 01:20:00,
2013-06-14 18:25:00,63.7,43.6,0.00,North,350,5.8,5.8,48,0.00,,---,0.00,VWS V14.01,2013-06-15 01:25:00,
2013-06-14 18:30:00,63.7,43.6,0.00,NNW,337,4.0,5.4,48,0.00,,---,0.00,VWS V14.01,2013-06-15 01:30:00,
2013-06-14 18:35:00,63.1,43.2,0.00,NNW,348,5.8,5.8,48,0.00,,---,0.00,VWS V14.01,2013-06-15 01:35:00,
2013-06-14 18:40:00,63.0,44.0,0.00,NNW,327,4.9,4.9,50,0.00,,---,0.00,VWS V14.01,2013-06-15 01:40:00,
2013-06-14 18:45:00,63.5,44.0,0.00,WNW,285,2.7,2.7,49,0.00,,---,0.00,VWS V14.01,2013-06-15 01:45:00,
2013-06-14 18:50:00,63.5,44.0,0.00,NNW,332,4.0,4.9,49,0.00,,---,0.00,VWS V14.01,2013-06-15 01:50:00,
2013-06-14 18:55:00,63.5,44.0,0.00,NW,326,4.0,6.3,49,0.00,,---,0.00,VWS V14.01,2013-06-15 01:55:00,
2013-06-14 19:00:00,63.5,44.0,0.00,WNW,303,5.8,5.8,49,0.00,,---,0.00,VWS V14.01,2013-06-15 02:00:00,
2013-06-14 19:05:00,63.0,44.0,0.00,NW,310,3.1,3.1,50,0.00,,---,0.00,VWS V14.01,2013-06-15 02:05:00,
2013-06-14 19:10:00,63.0,44.0,0.00,NNW,336,4.0,4.0,50,0.00,,---,0.00,VWS V14.01,2013-06-15 02:10:00,
2013-06-14 19:15:00,62.8,43.4,0.00,North,7,5.8,5.8,49,0.00,,---,0.00,VWS V14.01,2013-06-15 02:15:00,
2013-06-14 19:20:00,62.6,43.7,0.00,West,265,3.1,5.4,50,0.00,,---,0.00,VWS V14.01,2013-06-15 02:20:00,
2013-06-14 19:25:00,62.6,44.2,0.00,NW,324,5.4,5.4,51,0.00,,---,0.00,VWS V14.01,2013-06-15 02:25:00,
2013-06-14 19:30:00,62.8,44.4,0.00,WNW,293,3.6,3.6,51,0.00,,---,0.00,VWS V14.01,2013-06-15 02:30:00,
2013-06-14 19:35:00,63.0,44.0,0.00,WNW,293,3.6,3.6,50,0.00,,---,0.00,VWS V14.01,2013-06-15 02:35:00,
2013-06-14 19:40:00,63.0,44.0,0.00,NW,306,5.4,5.4,50,0.00,,---,0.00,VWS V14.01,2013-06-15 02:40:00,
2013-06-14 19:45:00,62.8,43.9,0.00,North,355,3.6,4.0,50,0.00,,---,0.00,VWS V14.01,2013-06-15 02:45:00,
2013-06-14 19:50:00,62.8,43.9,0.00,NNW,329,4.0,6.3,50,0.00,,---,0.00,VWS V14.01,2013-06-15 02:50:00,
2013-06-14 19:55:00,61.3,44.1,0.00,WNW,294,5.4,5.4,53,0.00,,---,0.00,VWS V14.01,2013-06-15 02:55:00,
2013-06-14 20:00:00,60.8,44.5,0.00,WNW,296,2.7,2.7,55,0.00,,---,0.08,VWS V14.01,2013-06-15 03:00:00,
2013-06-14 20:05:00,60.8,44.5,0.00,NW,311,5.8,5.8,55,0.00,,---,0.00,VWS V14.01,2013-06-15 03:05:00,
2013-06-14 20:10:00,60.1,44.8,0.00,NNW,348,3.6,3.6,57,0.00,,---,0.00,VWS V14.01,2013-06-15 03:10:00,
2013-06-14 20:15:00,59.4,44.1,0.00,NW,322,3.1,3.6,57,0.00,,---,0.00,VWS V14.01,2013-06-15 03:15:00,
2013-06-14 20:20:00,59.4,44.1,0.00,NW,306,3.6,3.6,57,0.00,,---,0.00,VWS V14.01,2013-06-15 03:20:00,
2013-06-14 20:25:00,58.8,45.4,0.00,NNW,346,5.4,5.4,61,0.00,,---,0.00,VWS V14.01,2013-06-15 03:25:00,
2013-06-14 20:30:00,58.8,45.4,0.00,WNW,288,2.2,2.7,61,0.00,,---,0.00,VWS V14.01,2013-06-15 03:30:00,
2013-06-14 20:35:00,58.3,44.9,0.00,WNW,298,0.0,0.0,61,0.00,,---,0.00,VWS V14.01,2013-06-15 03:35:00,
2013-06-14 20:40:00,58.1,45.6,0.00,North,352,5.4,5.4,63,0.00,,---,0.00,VWS V14.01,2013-06-15 03:40:00,
2013-06-14 20:45:00,58.1,45.6,0.00,WNW,297,2.7,2.7,63,0.00,,---,0.00,VWS V14.01,2013-06-15 03:45:00,
2013-06-14 20:50:00,57.4,45.3,0.00,WNW,297,0.0,0.0,64,0.00,,---,0.00,VWS V14.01,2013-06-15 03:50:00,
2013-06-14 20:55:00,57.4,45.3,0.00,WNW,297,0.0,0.0,64,0.00,,---,0.00,VWS V14.01,2013-06-15 03:55:00,
2013-06-14 21:00:00,57.0,45.8,0.00,NW,304,4.0,4.0,66,0.00,,---,0.00,VWS V14.01,2013-06-15 04:00:00,
2013-06-14 21:01:00,57.0,45.8,0.00,SSW,206,2.7,4.0,66,0.00,,---,0.00,VWS V14.01,2013-06-15 04:01:00,
2013-06-14 21:06:00,56.8,45.6,0.00,SSW,206,0.0,0.0,66,0.00,,---,0.00,VWS V14.01,2013-06-15 04:06:00,
2013-06-14 21:11:00,56.5,45.3,0.00,NW,310,0.0,0.0,66,0.00,,---,0.00,VWS V14.01,2013-06-15 04:11:00,
2013-06-14 21:16:00,55.8,44.6,0.00,NW,308,0.0,0.0,66,0.00,,---,0.00,VWS V14.01,2013-06-15 04:16:00,
2013-06-14 21:21:00,55.8,44.6,0.00,NW,308,0.0,0.0,66,0.00,,---,0.00,VWS V14.01,2013-06-15 04:21:00,
2013-06-14 21:26:00,54.5,43.4,0.00,NW,308,0.0,0.0,66,0.00,,---,0.00,VWS V14.01,2013-06-15 04:26:00,
2013-06-14 21:31:00,54.3,43.2,0.00,NW,308,0.0,0.0,66,0.00,,---,0.00,VWS V14.01,2013-06-15 04:31:00,
2013-06-14 21:36:00,54.3,43.2,0.00,NW,308,0.0,0.0,66,0.00,,---,0.00,VWS V14.01,2013-06-15 04:36:00,
2013-06-14 21:41:00,53.2,43.0,0.00,NW,308,0.0,0.0,68,0.00,,---,0.00,VWS V14.01,2013-06-15 04:41:00,
2013-06-14 21:46:00,53.2,43.0,0.00,NW,308,0.0,0.0,68,0.00,,---,0.00,VWS V14.01,2013-06-15 04:46:00,
2013-06-14 21:51:00,52.5,42.3,0.00,NW,308,0.0,0.0,68,0.00,,---,0.00,VWS V14.01,2013-06-15 04:51:00,
2013-06-14 21:56:00,52.5,42.3,0.00,NW,308,0.0,0.0,68,0.00,,---,0.00,VWS V14.01,2013-06-15 04:56:00,
2013-06-14 22:01:00,52.5,42.3,0.00,NW,308,0.0,0.0,68,0.00,,---,0.00,VWS V14.01,2013-06-15 05:01:00,
2013-06-14 22:06:00,51.6,42.2,0.00,NW,308,0.0,0.0,70,0.00,,---,0.00,VWS V14.01,2013-06-15 05:06:00,
2013-06-14 22:11:00,51.6,42.5,0.00,NW,308,0.0,0.0,71,0.00,,---,0.00,VWS V14.01,2013-06-15 05:11:00,
2013-06-14 22:16:00,51.1,42.0,0.00,NW,308,0.0,0.0,71,0.00,,---,0.00,VWS V14.01,2013-06-15 05:16:00,
2013-06-14 22:21:00,50.9,41.8,0.00,NW,308,0.0,0.0,71,0.00,,---,0.00,VWS V14.01,2013-06-15 05:21:00,
2013-06-14 22:26:00,50.5,41.5,0.00,NW,308,0.0,0.0,71,0.00,,---,0.00,VWS V14.01,2013-06-15 05:26:00,
2013-06-14 22:31:00,50.5,41.5,0.00,NW,308,0.0,0.0,71,0.00,,---,0.00,VWS V14.01,2013-06-15 05:31:00,
2013-06-14 22:36:00,50.2,41.5,0.00,NW,308,0.0,0.0,72,0.00,,---,0.00,VWS V14.01,2013-06-15 05:36:00,
2013-06-14 22:41:00,50.0,41.3,0.00,NW,308,0.0,0.0,72,0.00,,---,0.00,VWS V14.01,2013-06-15 05:41:00,
2013-06-14 22:46:00,49.8,41.5,0.00,NW,308,0.0,0.0,73,0.00,,---,0.00,VWS V14.01,2013-06-15 05:46:00,
2013-06-14 22:51:00,49.8,41.5,0.00,NW,308,0.0,0.0,73,0.00,,---,0.00,VWS V14.01,2013-06-15 05:51:00,
2013-06-14 22:56:00,49.5,41.2,0.00,NW,308,0.0,0.0,73,0.00,,---,0.00,VWS V14.01,2013-06-15 05:56:00,
2013-06-14 23:01:00,49.1,40.8,0.00,NW,308,0.0,0.0,73,0.00,,---,0.00,VWS V14.01,2013-06-15 06:01:00,
2013-06-14 23:06:00,48.9,40.3,0.00,NW,308,0.0,0.0,72,0.00,,---,0.00,VWS V14.01,2013-06-15 06:06:00,
2013-06-14 23:11:00,48.7,40.5,0.00,NW,308,0.0,0.0,73,0.00,,---,0.00,VWS V14.01,2013-06-15 06:11:00,
2013-06-14 23:16:00,48.7,40.5,0.00,NW,308,0.0,0.0,73,0.00,,---,0.00,VWS V14.01,2013-06-15 06:16:00,
2013-06-14 23:21:00,48.7,40.5,0.00,NW,308,0.0,0.0,73,0.00,,---,0.00,VWS V14.01,2013-06-15 06:21:00,
2013-06-14 23:26:00,48.2,40.3,0.00,NW,308,0.0,0.0,74,0.00,,---,0.00,VWS V14.01,2013-06-15 06:26:00,
2013-06-14 23:31:00,48.2,40.3,0.00,NW,308,0.0,0.0,74,0.00,,---,0.00,VWS V14.01,2013-06-15 06:31:00,
2013-06-14 23:36:00,47.7,39.8,0.00,NW,308,0.0,0.0,74,0.00,,---,0.00,VWS V14.01,2013-06-15 06:36:00,
2013-06-14 23:41:00,47.7,39.8,0.00,NW,308,0.0,0.0,74,0.00,,---,0.00,VWS V14.01,2013-06-15 06:41:00,
2013-06-14 23:46:00,47.3,39.8,0.00,NW,308,0.0,0.0,75,0.00,,---,0.00,VWS V14.01,2013-06-15 06:46:00,
2013-06-14 23:51:00,47.3,39.8,0.00,NW,308,0.0,0.0,75,0.00,,---,0.00,VWS V14.01,2013-06-15 06:51:00,
2013-06-14 23:56:00,47.3,39.8,0.00,NW,308,0.0,0.0,75,0.00,,---,0.00,VWS V14.01,2013-06-15 06:56:00,